Location: Home
(42.5358°N, 72.7383°W)
Time: 12:26:09
(UTC-05:00)

A-11 Canister half - Pass Details

Date: 07 December 2021
Orbit: 1524 x 1684 km, 47.3° (Epoch: 26 January)

Event Time Altitude Azimuth Distance (km) Brightness Sun altitude
Rises 00:54:53 0° 241° (WSW) 4,917 - -65.0°
Reaches altitude 10° 00:58:02 10° 241° (WSW) 3,938 - -64.6°
Maximum altitude 01:08:13 86° 154° (SSE) 1,688 - -63.3°
Exits shadow 01:17:06 15° 67° (ENE) 3,528 11.1 -62.0°
Drops below altitude 10° 01:18:22 10° 67° (ENE) 3,915 11.4 -61.8°
Sets 01:21:29 0° 67° (ENE) 4,888 12.0 -61.4°
